[[{"header":{"parameterUnit":"m.s-1","parameterCategory":1,"la1":30.2991,"la2":30.254,"lo1":-89.0895,"lo2":-89.0444,"dy":0.0017,"dx":0.0017,"nx":28,"ny":28,"refTime":"2024-02-18T03:00:00:Z","depth":0,"parameterNumber":2,"parameterNumberName":"U-component_of_WINDS"},"data":[0,0,0,0,0,0,0,0,0,0,0,0,0,0,0,0,0,0,0,0,0,0,0,0,0,0,0,0,0,0,0,0,0,0,0,0,0,0,0,0,0,0,0,0,0,0,0,0,0,0,0,0,0,0,0,0,0,0,1.4336,1.4337,0,1.4452,1.4453,1.4454,1.4513,1.4513,1.4514,1.4514,1.4635,1.4638,1.4641,0,0,0,0,0,0,0,0,0,0,0,0,0,1.4168,1.4171,1.4336,1.4337,1.4339,1.4452,1.4453,1.4455,1.4513,1.4513,1.4514,1.4514,1.4634,1.4637,1.4641,0,0,0,0,0,0,0,0,0,0,0,0,0,1.4258,1.4172,1.4336,1.4382,1.4387,1.4451,1.4453,1.4455,1.4513,1.4513,1.4514,1.4514,1.4632,1.4637,1.4642,1.467,0,0,1.4656,1.4658,0,0,0,0,0,0,0,0,1.4253,1.4264,1.4374,1.4379,1.4385,1.4468,1.4439,1.4527,1.4513,1.4465,1.4514,1.4514,1.4579,1.4589,1.461,1.4676,1.4681,1.4657,1.466,1.4662,1.4663,0,0,0,0,0,0,0,1.4247,1.426,1.4382,1.4375,1.4382,1.4397,1.441,1.4456,1.4521,1.447,1.4474,1.4487,1.4582,1.4605,1.4613,1.4683,1.4657,1.4661,1.4664,1.4666,1.4777,1.4777,0,0,0,0,0,0,1.4233,1.4254,1.4378,1.4385,1.4318,1.44,1.4415,1.4441,1.452,1.4532,1.4487,1.4489,1.4597,1.4608,1.4618,1.4656,1.4662,1.4666,1.4669,1.4777,1.4777,1.4777,0,0,0,0,0,0,1.4229,1.4243,1.4374,1.4321,1.4339,1.4403,1.4433,1.4444,1.4467,1.4533,1.4545,1.4498,1.4598,1.4611,1.4656,1.4661,1.4668,1.4673,1.4777,1.4777,1.4777,1.4733,0,0,0,0,0,0,1.4224,1.4242,1.4252,1.4321,1.4341,1.4409,1.4433,1.4446,1.4474,1.4479,1.4547,1.4559,1.4599,1.4649,1.4661,1.4668,1.4676,1.4777,1.4777,1.4777,1.4734,1.4731,1.4729,0,0,0,0,0,1.4218,1.4236,1.4253,1.4267,1.4356,1.4409,1.4421,1.4466,1.4474,1.4486,1.4529,1.4556,1.4659,1.4653,1.4667,1.4676,1.4777,1.4777,1.4777,1.4735,1.4732,1.4729,0,0,0,0,0,0,1.4167,1.4245,1.4265,1.4306,1.435,1.4419,1.4435,1.4461,1.4505,1.4508,1.4563,1.4578,1.4618,1.4652,1.4644,1.4707,1.4721,1.4724,1.4684,1.4681,1.4679,1.467,1.468,0,0,0,0,0,1.416,1.4196,1.4263,1.4293,1.4314,1.437,1.4396,1.4426,1.4475,1.4495,1.4541,1.4588,1.4631,1.4658,1.4701,1.4739,1.4755,1.4752,1.475,1.4747,1.4749,1.4772,1.4772,1.4778,1.4778,1.4778,0,0,1.4147,1.4195,1.4214,1.4284,1.4322,1.4358,1.4386,1.4424,1.4452,1.4501,1.4546,1.4581,1.4638,1.4679,1.47,1.4709,1.4751,1.4747,1.4745,1.4749,1.4772,1.4772,1.4771,1.4778,1.4778,1.4778,0,0,1.4142,1.4181,1.421,1.4248,1.4305,1.4343,1.4349,1.4414,1.444,1.4486,1.4523,1.4558,1.463,1.4669,1.4698,1.4707,1.4734,1.472,1.4706,1.4728,1.4728,1.4727,1.4731,1.4731,1.4721,1.4721,1.4721,0,1.4119,1.4175,1.4222,1.4257,1.4287,1.4332,1.4362,1.4396,1.4465,1.4485,1.4493,1.4585,1.4626,1.4677,1.468,1.4702,1.4712,1.4712,1.4724,1.4724,1.4725,1.4728,1.4729,1.4719,1.4719,1.472,1.472,0,1.4143,1.4182,1.4198,1.4262,1.4294,1.4326,1.4379,1.4405,1.4434,1.447,1.4517,1.4568,1.4622,1.4636,1.4665,1.4692,1.4695,1.4713,1.4727,1.4721,1.4725,1.4727,1.4716,1.4717,1.4718,1.4718,0,0,1.4109,1.4199,1.4204,1.4234,1.43,1.4331,1.4366,1.4418,1.444,1.4486,1.4517,1.4577,1.4593,1.4626,1.4659,1.4678,1.4682,1.4694,1.4696,1.469,1.4716,1.4702,1.4703,1.4701,1.4701,1.4701,1.4711,0,1.4114,1.4177,1.422,1.4267,1.4303,1.4347,1.4377,1.4422,1.4457,1.4494,1.4533,1.4575,1.4594,1.4614,1.4634,1.4677,1.4688,1.4677,1.473,1.4732,1.4715,1.4705,1.4691,1.4698,1.4713,1.4713,1.4714,0,1.4127,1.417,1.422,1.4283,1.43,1.4326,1.4377,1.4412,1.4463,1.4488,1.4524,1.4558,1.4597,1.4608,1.4663,1.4654,1.4679,1.4703,1.4705,1.4711,1.4722,1.4712,1.4701,1.4702,1.4717,1.4717,1.4717,0,1.4097,1.4168,1.4207,1.4231,1.4305,1.4323,1.4355,1.4406,1.4435,1.448,1.4499,1.4548,1.4576,1.4613,1.466,1.4663,1.471,1.4725,1.4732,1.4731,1.474,1.4739,1.4733,1.4755,1.4755,1.4755,1.4755,0,1.4097,1.4125,1.4195,1.4219,1.4253,1.4303,1.4335,1.4371,1.4416,1.4448,1.449,1.4519,1.4579,1.4616,1.4652,1.4692,1.4704,1.4726,1.4735,1.4722,1.4719,1.4739,1.4739,1.4756,1.4756,1.4756,1.4756,0,1.4068,1.4116,1.4162,1.4228,1.4245,1.4267,1.4324,1.435,1.4387,1.4427,1.444,1.4499,1.4545,1.4595,1.4658,1.4682,1.472,1.4734,1.4703,1.4708,1.4712,1.4711,1.4718,1.4722,1.4742,1.4742,1.4741,0,1.4065,1.4088,1.4157,1.4181,1.4211,1.425,1.4279,1.4329,1.4358,1.4419,1.4437,1.4485,1.4527,1.4598,1.4647,1.4696,1.4711,1.471,1.4718,1.4704,1.4711,1.4709,1.4711,1.4707,1.4707,1.4706,1.4706,0,1.4054,1.4076,1.4116,1.4165,1.4198,1.4239,1.4281,1.4299,1.4358,1.4388,1.4435,1.4467,1.4531,1.4579,1.4633,1.4667,1.4696,1.4703,1.4707,1.4694,1.4675,1.4685,1.4695,1.4703,1.4703,1.4703,1.4703,1.4704,1.4038,1.4061,1.4112,1.4156,1.4193,1.4231,1.4258,1.4299,1.4339,1.4394,1.4422,1.4468,1.452,1.4596,1.4629,1.4666,1.4676,1.4682,1.4683,1.4684,1.468,1.4669,1.4677,1.4677,1.4677,1.4677,1.4677,0,1.4029,1.4064,1.4104,1.4161,1.4195,1.422,1.4268,1.4295,1.4335,1.438,1.442,1.4474,1.4521,1.4574,1.4624,1.4644,1.4659,1.4655,1.4654,1.4662,1.4669,1.466,1.4643,1.4643,1.4643,1.4643,1.4643,1.4643,1.4028,1.4068,1.4096,1.4154,1.419,1.4235,1.4261,1.4297,1.4333,1.4391,1.443,1.4464,1.4513,1.4567,1.4611,1.4625,1.4642,1.4634,1.4652,1.4658,1.4661,1.4664,1.4656,1.4637,1.4637,1.4642,1.4642,1.4642]},{"header":{"parameterUnit":"m.s-1","parameterCategory":1,"la1":30.2991,"la2":30.254,"lo1":-89.0895,"lo2":-89.0444,"dy":0.0017,"dx":0.0017,"nx":28,"ny":28,"refTime":"2024-02-18T03:00:00:Z","depth":0,"parameterNumber":3,"parameterNumberName":"V-component_of_WINDS"},"data":[0,0,0,0,0,0,0,0,0,0,0,0,0,0,0,0,0,0,0,0,0,0,0,0,0,0,0,0,0,0,0,0,0,0,0,0,0,0,0,0,0,0,0,0,0,0,0,0,0,0,0,0,0,0,0,0,0,0,0.9262,0.9262,0,0.9226,0.9225,0.9225,0.9215,0.9215,0.9215,0.9215,0.9175,0.9174,0.9172,0,0,0,0,0,0,0,0,0,0,0,0,0,0.9319,0.9318,0.9262,0.9262,0.9261,0.9226,0.9225,0.9225,0.9214,0.9215,0.9215,0.9215,0.9175,0.9174,0.9172,0,0,0,0,0,0,0,0,0,0,0,0,0,0.9289,0.9317,0.9262,0.9252,0.9251,0.9226,0.9225,0.9225,0.9214,0.9215,0.9215,0.9215,0.9176,0.9174,0.9172,0.9154,0,0,0.9166,0.9166,0,0,0,0,0,0,0,0,0.9291,0.9287,0.9254,0.9253,0.9251,0.9225,0.9231,0.9201,0.9214,0.9228,0.9215,0.9215,0.9191,0.9188,0.918,0.9153,0.9151,0.9166,0.9165,0.9164,0.9164,0,0,0,0,0,0,0,0.9293,0.9289,0.9248,0.9253,0.9252,0.9248,0.9244,0.9225,0.9208,0.9227,0.9226,0.9222,0.919,0.9182,0.9179,0.915,0.9166,0.9165,0.9163,0.9163,0.9103,0.9103,0,0,0,0,0,0,0.9297,0.929,0.9249,0.9247,0.9272,0.9246,0.9242,0.9233,0.9208,0.9205,0.9222,0.9222,0.9185,0.9182,0.9178,0.9154,0.9164,0.9163,0.9161,0.9104,0.9103,0.9103,0,0,0,0,0,0,0.9299,0.9294,0.925,0.9268,0.9263,0.9245,0.9235,0.9232,0.9224,0.9205,0.9201,0.9217,0.9186,0.9181,0.916,0.9153,0.9162,0.916,0.9104,0.9104,0.9103,0.9107,0,0,0,0,0,0,0.93,0.9294,0.9288,0.9268,0.9262,0.9234,0.9235,0.9231,0.9221,0.9221,0.9199,0.9196,0.9185,0.9163,0.9158,0.915,0.9158,0.9105,0.9104,0.9103,0.9107,0.9107,0.9106,0,0,0,0,0,0.9302,0.9291,0.9288,0.9283,0.9254,0.9234,0.923,0.9219,0.9221,0.9214,0.9201,0.9196,0.9154,0.9161,0.9155,0.9147,0.9105,0.9104,0.9103,0.9108,0.9107,0.9106,0,0,0,0,0,0,0.931,0.9288,0.9285,0.9267,0.9252,0.9232,0.9224,0.9219,0.9203,0.9203,0.9189,0.9184,0.9164,0.9153,0.9161,0.9127,0.9129,0.9127,0.9135,0.9134,0.9133,0.9135,0.9157,0,0,0,0,0,0.931,0.9296,0.9278,0.9263,0.9256,0.9241,0.9232,0.9225,0.9209,0.9202,0.9188,0.9172,0.9155,0.9144,0.9127,0.9106,0.91,0.9097,0.9096,0.9096,0.9094,0.908,0.9077,0.9099,0.9099,0.9099,0,0,0.9309,0.9295,0.9288,0.9265,0.9252,0.9237,0.9236,0.9221,0.9209,0.92,0.9179,0.9168,0.9149,0.9127,0.9117,0.9118,0.9086,0.9094,0.9094,0.9092,0.9078,0.9076,0.9074,0.9099,0.9099,0.9099,0,0,0.93,0.9289,0.9275,0.9263,0.9244,0.9234,0.9231,0.9211,0.9203,0.9183,0.9175,0.916,0.9131,0.9117,0.9106,0.9089,0.9084,0.9084,0.908,0.9066,0.9064,0.9063,0.9055,0.9053,0.9083,0.9083,0.9083,0,0.9301,0.9279,0.9268,0.9253,0.9242,0.9233,0.9218,0.9206,0.9183,0.9175,0.9176,0.9139,0.9126,0.91,0.9096,0.9088,0.9082,0.9087,0.9066,0.9064,0.9062,0.9055,0.9052,0.9083,0.9083,0.9083,0.9083,0,0.928,0.9265,0.9256,0.9234,0.9222,0.9207,0.9192,0.9181,0.9174,0.9163,0.9141,0.9124,0.9103,0.9097,0.909,0.9069,0.907,0.9069,0.9071,0.906,0.9053,0.905,0.9083,0.9083,0.9083,0.9083,0,0,0.9276,0.9247,0.9244,0.9233,0.9211,0.9198,0.9182,0.9162,0.9152,0.9135,0.912,0.9095,0.9093,0.9081,0.9072,0.906,0.9046,0.906,0.9059,0.9056,0.9019,0.9019,0.9016,0.9042,0.9041,0.9041,0.902,0,0.9263,0.9234,0.9223,0.9198,0.9183,0.9173,0.9159,0.9143,0.9132,0.9115,0.9103,0.9085,0.9084,0.9076,0.9065,0.905,0.9038,0.9051,0.9025,0.9025,0.903,0.9013,0.9014,0.8995,0.9017,0.9017,0.9017,0,0.9244,0.9228,0.9202,0.918,0.9173,0.916,0.914,0.9125,0.9106,0.9099,0.9084,0.9076,0.9056,0.9059,0.9031,0.904,0.9029,0.902,0.9019,0.9015,0.9019,0.9007,0.8989,0.8986,0.9012,0.9013,0.9013,0,0.9242,0.9213,0.9193,0.9185,0.9159,0.915,0.9139,0.912,0.9108,0.909,0.9081,0.9061,0.9049,0.9032,0.9018,0.9022,0.8989,0.8992,0.8981,0.8981,0.8974,0.8975,0.8952,0.8969,0.8969,0.8969,0.8969,0,0.9228,0.9212,0.9192,0.918,0.9161,0.9147,0.9129,0.9117,0.91,0.9084,0.9074,0.9059,0.9041,0.9023,0.9012,0.8988,0.8984,0.8975,0.8972,0.8976,0.8977,0.8967,0.8968,0.8968,0.8968,0.8968,0.8969,0,0.9222,0.9208,0.9186,0.9163,0.9157,0.9144,0.9124,0.9111,0.9099,0.9078,0.9073,0.9053,0.9031,0.9015,0.8987,0.8979,0.8953,0.8951,0.896,0.8958,0.8947,0.8948,0.8917,0.8911,0.8933,0.8933,0.8933,0,0.9214,0.9202,0.9177,0.9166,0.9155,0.9137,0.9125,0.911,0.9097,0.9073,0.9062,0.904,0.9021,0.8986,0.8968,0.8946,0.8942,0.8932,0.8938,0.8941,0.8939,0.894,0.8938,0.8931,0.8931,0.8931,0.8931,0,0.9201,0.9194,0.9177,0.9156,0.9141,0.9124,0.9107,0.9098,0.908,0.9066,0.9043,0.9029,0.8999,0.8976,0.8951,0.8938,0.893,0.8929,0.8925,0.8928,0.8933,0.8928,0.8956,0.893,0.893,0.893,0.893,0.893,0.9193,0.918,0.9161,0.9141,0.9126,0.911,0.9096,0.9082,0.9063,0.9038,0.903,0.9006,0.8985,0.8951,0.8937,0.8917,0.8918,0.8912,0.891,0.8909,0.8908,0.8937,0.8913,0.8913,0.8913,0.8913,0.8913,0,0.9178,0.9164,0.9146,0.9122,0.9106,0.9101,0.9081,0.9067,0.9047,0.9028,0.9009,0.8982,0.8959,0.8939,0.8915,0.8902,0.8898,0.8896,0.8896,0.8893,0.891,0.8916,0.89,0.89,0.89,0.89,0.89,0.89,0.9168,0.9146,0.9136,0.9106,0.9092,0.907,0.9058,0.9042,0.9027,0.8997,0.8978,0.8965,0.8945,0.8919,0.8896,0.8891,0.8881,0.888,0.8873,0.889,0.8892,0.8893,0.8898,0.8879,0.8879,0.8857,0.8857,0.8857]}]]